EW5401 Weather Reports


Display with metric or nautical units.
time (UTC)temp
F
wind
direction
speed
MPH
gust
MPH
rain 1hr
in
rain 24hr
in
rain mn
in
humidity
%
barometer
mb
20260904131519 68 345 2.0 9.0 0.00 0.00 0.00 91 1010.9
20260904130018 67 276 1.0 5.0 0.00 0.00 0.00 96 1010.8
20260904124517 67 53 1.0 2.0 0.00 0.00 0.00 96 1010.8
20260904123017 67 53 0.0 1.0 0.00 0.00 0.00 97 1010.8
20260904121517 66 308 1.0 2.0 0.00 0.00 0.00 97 1010.7
20260904120017 65 308 0.0 1.0 0.00 0.00 0.00 96 1010.6
20260904114515 65 14 0.0 2.0 0.00 0.00 0.00 96 1010.4
20260904113019 65 14 0.0 3.0 0.00 0.00 0.00 96 1010.4
20260904111516 65 14 0.0 3.0 0.00 0.00 0.00 96 1010.2
20260904110022 65 38 1.0 2.0 0.00 0.00 0.00 96 1010.2
20260904104513 66 37 1.0 3.0 0.00 0.00 0.00 96 1009.9
20260904103015 66 55 1.0 3.0 0.00 0.00 0.00 96 1009.8
20260904101507 66 78 0.0 2.0 0.00 0.00 0.00 96 1009.8
20260904100006 67 78 0.0 2.0 0.00 0.00 0.00 96 1009.8
20260904094504 67 78 0.0 3.0 0.00 0.00 0.00 96 1009.7
20260904093003 67 78 0.0 1.0 0.00 0.00 0.00 96 1009.6
20260904091502 67 78 0.0 2.0 0.00 0.00 0.00 96 1009.6
20260904090101 67 78 0.0 2.0 0.00 0.00 0.00 96 1009.6
20260904084601 68 78 0.0 0.0 0.00 0.00 0.00 96 1009.5
20260904083058 68 78 0.0 2.0 0.00 0.00 0.00 96 1009.1
20260904081558 68 78 0.0 2.0 0.00 0.00 0.00 96 1009.1
20260904074556 68 46 0.0 2.0 0.00 0.00 0.00 96 1009.2
20260904073055 68 46 0.0 0.0 0.00 0.00 0.00 96 1009.4
20260904071554 68 46 0.0 1.0 0.00 0.00 0.00 96 1009.4
20260904070052 68 46 2.0 3.0 0.00 0.00 0.00 95 1009.7
20260904064548 68 43 1.0 3.0 0.00 0.00 0.00 95 1010.0
20260904063046 68 281 0.0 2.0 0.00 0.00 0.00 95 1010.1
20260904061552 68 281 0.0 2.0 0.00 0.00 0.00 95 1010.3
20260904060043 69 281 0.0 2.0 0.00 0.00 0.00 95 1010.2
20260904054543 69 281 0.0 0.0 0.00 0.09 0.00 95 1010.2
20260904053041 69 281 0.0 3.0 0.00 0.09 0.00 95 1010.2
20260904051547 69 281 1.0 2.0 0.00 0.09 0.00 95 1010.3
20260904050039 69 281 0.0 3.0 0.00 0.09 0.00 95 1010.5
20260904044536 69 281 0.0 0.0 0.00 0.18 0.00 95 1010.7
20260904043034 69 281 0.0 0.0 0.00 0.18 0.00 95 1010.7
20260904041532 69 281 0.0 0.0 0.00 0.18 0.00 95 1010.9
20260904040031 69 281 0.0 3.0 0.00 0.18 0.00 95 1010.9
20260904034545 69 281 0.0 0.0 0.00 0.18 0.18 95 1010.9
20260904033030 69 281 0.0 0.0 0.00 0.18 0.18 94 1011.0
20260904031530 69 281 0.0 0.0 0.00 0.18 0.18 94 1011.1
20260904030030 69 281 0.0 0.0 0.00 0.18 0.18 94 1011.0
20260904024528 69 281 0.0 2.0 0.00 0.18 0.18 94 1011.3
20260904023027 69 281 0.0 0.0 0.00 0.18 0.18 94 1011.5
20260904021528 69 281 0.0 0.0 0.00 0.18 0.18 94 1011.5
20260904020027 69 281 0.0 0.0 0.00 0.18 0.18 93 1011.5
20260904014526 69 281 0.0 0.0 0.00 0.18 0.18 92 1011.7
20260904013026 70 281 0.0 0.0 0.00 0.18 0.18 92 1011.7
20260904011554 70 281 0.0 0.0 0.00 0.18 0.18 92 1011.7
20260904010028 71 281 0.0 0.0 0.00 0.18 0.18 92 1011.5
20260904004524 71 281 0.0 0.0 0.00 0.18 0.18 91 1011.3
20260904003024 72 281 0.0 0.0 0.00 0.18 0.18 91 1011.4
20260904001524 72 281 0.0 0.0 0.00 0.18 0.18 90 1011.4
20260904000036 73 281 0.0 0.0 0.00 0.18 0.18 89 1011.4
20260903234535 74 281 0.0 0.0 0.00 0.18 0.18 88 1010.9
20260903233022 75 281 0.0 0.0 0.00 0.18 0.18 86 1010.7
20260903231522 76 281 0.0 1.0 0.00 0.18 0.18 85 1010.7
20260903230031 77 281 0.0 0.0 0.00 0.18 0.18 84 1010.8
20260903224523 78 281 0.0 0.0 0.00 0.18 0.18 82 1010.6
20260903223020 79 281 0.0 0.0 0.00 0.18 0.18 80 1010.4
20260903221520 80 281 0.0 0.0 0.00 0.18 0.18 77 1010.6
20260903220019 82 281 0.0 4.0 0.00 0.18 0.18 75 1010.6
20260903214523 83 312 0.0 4.0 0.00 0.18 0.18 71 1010.6
20260903213029 83 265 1.0 4.0 0.00 0.18 0.18 71 1010.6
20260903211519 83 274 2.0 5.0 0.00 0.18 0.18 71 1010.5
20260903210015 83 211 0.0 4.0 0.00 0.18 0.18 72 1010.8
20260903204516 83 311 1.0 5.0 0.00 0.18 0.18 74 1010.8
20260903203025 82 208 2.0 6.0 0.00 0.18 0.18 73 1010.7
20260903201509 81 298 2.0 4.0 0.00 0.18 0.18 76 1010.7
20260903200006 80 238 1.0 4.0 0.00 0.18 0.18 77 1010.8
20260903194505 80 318 0.0 3.0 0.00 0.18 0.18 77 1010.8
20260903193004 80 280 1.0 5.0 0.00 0.18 0.18 76 1011.0
20260903191604 81 301 1.0 4.0 0.00 0.18 0.18 78 1011.2
20260903190058 80 257 1.0 6.0 0.00 0.18 0.18 78 1011.3
20260903184557 80 273 1.0 4.0 0.00 0.18 0.18 78 1011.4
20260903183056 80 281 1.0 5.0 0.00 0.18 0.18 78 1011.6
20260903181553 80 301 2.0 7.0 0.00 0.18 0.18 78 1011.7
20260903174550 79 39 1.0 4.0 0.00 0.18 0.18 80 1011.8
20260903173049 79 248 1.0 7.0 0.00 0.18 0.18 78 1012.0
20260903171559 78 225 1.0 7.0 0.00 0.18 0.18 82 1012.0
20260903170045 77 303 0.0 9.0 0.00 0.18 0.18 81 1012.2
20260903164601 78 173 1.0 8.0 0.00 0.18 0.18 79 1012.2
20260903163042 78 212 2.0 8.0 0.00 0.18 0.18 79 1012.0
20260903161538 77 229 2.0 5.0 0.00 0.18 0.18 81 1012.4
20260903160036 76 321 2.0 5.0 0.00 0.18 0.18 82 1012.7
20260903154538 75 163 0.0 3.0 0.00 0.18 0.18 84 1012.6
20260903153031 75 246 2.0 4.0 0.00 0.18 0.18 83 1012.6
20260903151529 74 198 2.0 6.0 0.00 0.18 0.18 84 1012.8
20260903144552 72 175 0.0 3.0 0.00 0.18 0.18 87 1012.8
20260903143048 72 207 1.0 4.0 0.00 0.18 0.18 88 1012.9
20260903141541 71 327 0.0 3.0 0.00 0.18 0.18 90 1012.8
20260903140044 70 327 1.0 3.0 0.00 0.18 0.18 92 1012.8
20260903134537 70 329 1.0 3.0 0.00 0.18 0.18 93 1012.8
20260903133034 69 221 0.0 3.0 0.00 0.18 0.18 95 1012.8